,,,PA_Meas_PMT16A,,PR_Meas_QMR101_102,,RH_Meas_QMH101,,SR_Meas_QMS101,,TA_Meas_QMH101,,GenWind,,GenWind,
date,time,status,PA,status,PR,status,RH,status,SR,status,TA,status,DirAvg,status,SpdAvg,
2008-03-30, 00:00:04,VALID,1005.29,VALID,0,VALID,89.9903,VALID,0.100563,VALID,23.9779,VALID,307,VALID,0.328125,
2008-03-30, 00:01:04,VALID,1005.25,VALID,0,VALID,90.0589,VALID,0.100563,VALID,23.9584,VALID,327,VALID,0.15625,
2008-03-30, 00:02:04,VALID,1005.25,VALID,0,VALID,90.1047,VALID,0.100563,VALID,23.9584,VALID,321,VALID,0.397656,
2008-03-30, 00:03:04,VALID,1005.22,VALID,0,VALID,90.2115,VALID,0,VALID,23.9584,VALID,324,VALID,0.355469,
2008-03-30, 00:04:04,VALID,1005.16,VALID,0,VALID,90.3488,VALID,0,VALID,23.9584,VALID,327,VALID,0.316797,
2008-03-30, 00:05:04,VALID,1005.17,VALID,0,VALID,90.3336,VALID,0,VALID,23.9584,VALID,328,VALID,0.173438,
2008-03-30, 00:06:04,VALID,1005.16,VALID,0,VALID,90.4862,VALID,0.100563,VALID,23.9584,VALID,328,VALID,0.0125,
2008-03-30, 00:07:04,VALID,1005.13,VALID,0,VALID,90.6769,VALID,0,VALID,23.9389,VALID,328,VALID,0,
2008-03-30, 00:08:04,VALID,1005.12,VALID,0,VALID,90.509,VALID,0,VALID,23.9371,VALID,337,VALID,0.405078,
2008-03-30, 00:09:04,VALID,1005.13,VALID,0,VALID,90.7837,VALID,0,VALID,23.9389,VALID,337,VALID,0.2375,
2008-03-30, 00:10:04,VALID,1005.11,VALID,0,VALID,90.7074,VALID,0,VALID,23.9389,VALID,339,VALID,0.422266,
2008-03-30, 00:11:04,VALID,1005.06,VALID,0,VALID,90.8142,VALID,0,VALID,23.9389,VALID,346,VALID,0.189844,
2008-03-30, 00:12:04,VALID,1005.05,VALID,0,VALID,90.8676,VALID,0,VALID,23.9408,VALID,346,VALID,0.154687,
2008-03-30, 00:13:04,VALID,1005.03,VALID,0,VALID,90.8447,VALID,0.100563,VALID,23.9389,VALID,325,VALID,0.528516,
2008-03-30, 00:14:04,VALID,1004.98,VALID,0,VALID,90.7226,VALID,0,VALID,23.9584,VALID,298,VALID,0.574219,
2008-03-30, 00:15:04,VALID,1004.96,VALID,0,VALID,90.7837,VALID,0.100563,VALID,23.9779,VALID,295,VALID,0.0710938,
2008-03-30, 00:16:04,VALID,1004.96,VALID,0,VALID,90.4938,VALID,0,VALID,23.9779,VALID,295,VALID,0.559375,
2008-03-30, 00:17:04,VALID,1004.93,VALID,0,VALID,90.4938,VALID,0.100563,VALID,24.0363,VALID,295,VALID,0.150781,
2008-03-30, 00:18:04,VALID,1004.92,VALID,0,VALID,90.3336,VALID,0,VALID,24.0363,VALID,292,VALID,0.427344,
2008-03-30, 00:19:04,VALID,1004.92,VALID,0,VALID,90.4556,VALID,0,VALID,24.0752,VALID,287,VALID,0.329297,
2008-03-30, 00:20:04,VALID,1004.91,VALID,0,VALID,90.4709,VALID,0,VALID,24.0752,VALID,317,VALID,0.21875,
2008-03-30, 00:21:04,VALID,1004.91,VALID,0,VALID,90.4022,VALID,0.100563,VALID,24.0557,VALID,317,VALID,0,
2008-03-30, 00:22:04,VALID,1004.93,VALID,0,VALID,90.448,VALID,0,VALID,24.077,VALID,311,VALID,0.221875,
2008-03-30, 00:23:04,VALID,1004.94,VALID,0,VALID,90.5319,VALID,0,VALID,24.0557,VALID,311,VALID,0.0597656,
2008-03-30, 00:24:04,VALID,1004.89,VALID,0,VALID,90.5777,VALID,0,VALID,24.077,VALID,311,VALID,0.266406,
2008-03-30, 00:25:04,VALID,1004.89,VALID,0,VALID,90.5548,VALID,0,VALID,24.0557,VALID,323,VALID,0.466016,
2008-03-30, 00:26:04,VALID,1004.89,VALID,0,VALID,90.9591,VALID,0,VALID,24.0363,VALID,326,VALID,0.465234,
2008-03-30, 00:27:04,VALID,1004.86,VALID,0,VALID,90.8371,VALID,0,VALID,24.0168,VALID,352,VALID,0.556641,
2008-03-30, 00:28:04,VALID,1004.87,VALID,0,VALID,90.9286,VALID,0,VALID,24.0168,VALID,356,VALID,0.690234,
2008-03-30, 00:29:04,VALID,1004.83,VALID,0,VALID,91.2643,VALID,0,VALID,23.9992,VALID,356,VALID,0.716797,
2008-03-30, 00:30:04,VALID,1004.87,VALID,0,VALID,91.4092,VALID,0,VALID,23.9992,VALID,356,VALID,0.778906,
2008-03-30, 00:31:04,VALID,1004.87,VALID,0,VALID,91.5084,VALID,0,VALID,23.9195,VALID,356,VALID,0.790625,
2008-03-30, 00:32:04,VALID,1004.84,VALID,0,VALID,91.7449,VALID,0,VALID,23.9,VALID,357,VALID,0.907422,
2008-03-30, 00:33:04,VALID,1004.83,VALID,0,VALID,92.0043,VALID,0,VALID,23.8805,VALID,360,VALID,0.720703,
2008-03-30, 00:34:04,VALID,1004.81,VALID,0,VALID,92.1645,VALID,0,VALID,23.8416,VALID,1,VALID,0.59375,
2008-03-30, 00:35:05,VALID,1004.79,VALID,0,VALID,92.3629,VALID,0,VALID,23.8434,VALID,1,VALID,0.533984,
2008-03-30, 00:36:05,VALID,1004.83,VALID,0,VALID,92.5002,VALID,0,VALID,23.7832,VALID,1,VALID,0.560156,
2008-03-30, 00:37:05,VALID,1004.81,VALID,0,VALID,92.6756,VALID,0,VALID,23.7443,VALID,359,VALID,0.560938,
2008-03-30, 00:38:05,VALID,1004.77,VALID,0,VALID,92.813,VALID,0,VALID,23.7655,VALID,352,VALID,0.807031,
2008-03-30, 00:39:05,VALID,1004.76,VALID,0,VALID,92.8435,VALID,0,VALID,23.7443,VALID,349,VALID,0.686719,
2008-03-30, 00:40:05,VALID,1004.73,VALID,0,VALID,92.8892,VALID,0,VALID,23.7248,VALID,355,VALID,0.657812,
2008-03-30, 00:41:05,VALID,1004.72,VALID,0,VALID,92.9655,VALID,0,VALID,23.7443,VALID,349,VALID,0.885938,
2008-03-30, 00:42:05,VALID,1004.67,VALID,0,VALID,92.935,VALID,0,VALID,23.7832,VALID,352,VALID,0.370313,
2008-03-30, 00:43:05,VALID,1004.66,VALID,0,VALID,92.9045,VALID,0,VALID,23.8027,VALID,353,VALID,0.498047,
2008-03-30, 00:44:05,VALID,1004.65,VALID,0,VALID,92.8892,VALID,0,VALID,23.8416,VALID,347,VALID,0.261328,
2008-03-30, 00:45:05,VALID,1004.63,VALID,0,VALID,92.7901,VALID,0,VALID,23.8611,VALID,353,VALID,0.312109,
2008-03-30, 00:46:05,VALID,1004.59,VALID,0,VALID,92.7138,VALID,0,VALID,23.8805,VALID,353,VALID,0.835156,
2008-03-30, 00:47:05,VALID,1004.6,VALID,0,VALID,92.546,VALID,0,VALID,23.9,VALID,352,VALID,0.854297,
2008-03-30, 00:48:05,VALID,1004.58,VALID,0,VALID,92.4315,VALID,0.100563,VALID,23.9584,VALID,332,VALID,0.449219,
2008-03-30, 00:49:05,VALID,1004.55,VALID,0,VALID,92.401,VALID,0,VALID,23.9779,VALID,5,VALID,0.0972656,
2008-03-30, 00:50:05,VALID,1004.53,VALID,0,VALID,92.3552,VALID,0,VALID,23.9779,VALID,311,VALID,0.562891,
2008-03-30, 00:51:05,VALID,1004.51,VALID,0,VALID,92.2561,VALID,0.100563,VALID,24.0168,VALID,340,VALID,0.59375,
2008-03-30, 00:52:05,VALID,1004.53,VALID,0,VALID,92.1721,VALID,0,VALID,24.0168,VALID,288,VALID,0.490234,
2008-03-30, 00:53:05,VALID,1004.5,VALID,0,VALID,92.0882,VALID,0.100563,VALID,24.0345,VALID,296,VALID,0.373437,
2008-03-30, 00:54:05,VALID,1004.48,VALID,0,VALID,91.9509,VALID,0,VALID,24.077,VALID,288,VALID,0.533984,
2008-03-30, 00:55:05,VALID,1004.51,VALID,0,VALID,91.7907,VALID,0,VALID,24.0752,VALID,301,VALID,0.571484,
2008-03-30, 00:56:05,VALID,1004.46,VALID,0,VALID,91.6076,VALID,0,VALID,24.0947,VALID,298,VALID,0.595703,
2008-03-30, 00:57:05,VALID,1004.46,VALID,0,VALID,91.4169,VALID,0,VALID,24.1336,VALID,326,VALID,0.482812,
2008-03-30, 00:58:05,VALID,1004.46,VALID,0,VALID,91.4703,VALID,0,VALID,24.1726,VALID,10,VALID,0.673437,
2008-03-30, 00:59:05,VALID,1004.46,VALID,0,VALID,91.2033,VALID,0,VALID,24.2115,VALID,307,VALID,0.836719,
2008-03-30, 01:00:05,VALID,1004.46,VALID,0,VALID,91.1728,VALID,0,VALID,24.231,VALID,290,VALID,0.0757812,
2008-03-30, 01:01:05,VALID,1004.44,VALID,0,VALID,91.0202,VALID,0,VALID,24.2504,VALID,353,VALID,0.820313,
2008-03-30, 01:02:05,VALID,1004.44,VALID,0,VALID,90.9744,VALID,0,VALID,24.2504,VALID,346,VALID,0.664063,
2008-03-30, 01:03:05,VALID,1004.45,VALID,0,VALID,90.9439,VALID,0,VALID,24.2699,VALID,313,VALID,0.527344,
2008-03-30, 01:04:05,VALID,1004.42,VALID,0,VALID,90.9897,VALID,0,VALID,24.2699,VALID,348,VALID,0.317187,
2008-03-30, 01:05:05,VALID,1004.42,VALID,0,VALID,90.9668,VALID,0.100563,VALID,24.2504,VALID,283,VALID,0.744141,
2008-03-30, 01:06:05,VALID,1004.4,VALID,0,VALID,90.9591,VALID,0,VALID,24.2504,VALID,312,VALID,0.411719,
2008-03-30, 01:07:05,VALID,1004.39,VALID,0,VALID,90.9286,VALID,0.100563,VALID,24.2504,VALID,348,VALID,0.623047,
2008-03-30, 01:08:05,VALID,1004.4,VALID,0,VALID,90.9363,VALID,0,VALID,24.2504,VALID,308,VALID,0.770703,
2008-03-30, 01:09:05,VALID,1004.38,VALID,0,VALID,90.9134,VALID,0,VALID,24.231,VALID,25,VALID,0.305859,
2008-03-30, 01:10:05,VALID,1004.35,VALID,0,VALID,90.9973,VALID,0,VALID,24.231,VALID,341,VALID,0.360156,
2008-03-30, 01:11:05,VALID,1004.36,VALID,0,VALID,90.9744,VALID,0,VALID,24.2115,VALID,346,VALID,0.696484,
2008-03-30, 01:12:05,VALID,1004.34,VALID,0,VALID,91.0507,VALID,0,VALID,24.2115,VALID,292,VALID,0.353125,
2008-03-30, 01:13:05,VALID,1004.32,VALID,0,VALID,91.0888,VALID,0,VALID,24.192,VALID,350,VALID,1.05039,
2008-03-30, 01:14:05,VALID,1004.34,VALID,0,VALID,91.0278,VALID,0.100563,VALID,24.1726,VALID,350,VALID,0.9375,
2008-03-30, 01:15:05,VALID,1004.3,VALID,0,VALID,91.0431,VALID,0,VALID,24.1726,VALID,297,VALID,0.498828,
2008-03-30, 01:16:05,VALID,1004.29,VALID,0,VALID,91.0965,VALID,0,VALID,24.1726,VALID,297,VALID,0.174609,
2008-03-30, 01:17:05,VALID,1004.26,VALID,0,VALID,91.0812,VALID,0,VALID,24.1726,VALID,306,VALID,0.291016,
2008-03-30, 01:18:05,VALID,1004.23,VALID,0,VALID,90.9515,VALID,0,VALID,24.1939,VALID,336,VALID,0.673047,
2008-03-30, 01:19:05,VALID,1004.19,VALID,0,VALID,90.9897,VALID,0,VALID,24.1726,VALID,350,VALID,0.873047,
2008-03-30, 01:20:05,VALID,1004.14,VALID,0,VALID,90.9439,VALID,0,VALID,24.1531,VALID,306,VALID,0.361328,
2008-03-30, 01:21:05,VALID,1004.13,VALID,0,VALID,90.8523,VALID,0,VALID,24.1726,VALID,295,VALID,0.723047,
2008-03-30, 01:22:05,VALID,1004.1,VALID,0,VALID,90.86,VALID,0,VALID,24.1939,VALID,329,VALID,0.433984,
2008-03-30, 01:23:05,VALID,1004.1,VALID,0,VALID,90.86,VALID,0,VALID,24.1726,VALID,335,VALID,0.481641,
2008-03-30, 01:24:05,VALID,1004.11,VALID,0,VALID,90.8066,VALID,0,VALID,24.1939,VALID,345,VALID,0.263281,
2008-03-30, 01:25:05,VALID,1004.1,VALID,0,VALID,90.6464,VALID,0,VALID,24.1726,VALID,274,VALID,0.497266,
2008-03-30, 01:26:05,VALID,1004.13,VALID,0,VALID,90.5167,VALID,0,VALID,24.1726,VALID,307,VALID,0.698047,
2008-03-30, 01:27:05,VALID,1004.12,VALID,0,VALID,90.4556,VALID,0,VALID,24.2133,VALID,332,VALID,0.694141,
2008-03-30, 01:28:05,VALID,1004.09,VALID,0,VALID,90.3412,VALID,0,VALID,24.192,VALID,288,VALID,0.563672,
2008-03-30, 01:29:05,VALID,1004.07,VALID,0,VALID,90.2573,VALID,0,VALID,24.2115,VALID,293,VALID,0.466797,
2008-03-30, 01:30:05,VALID,1004.04,VALID,0,VALID,90.2191,VALID,0,VALID,24.2115,VALID,297,VALID,0.492188,
2008-03-30, 01:31:05,VALID,1004.05,VALID,0,VALID,90.181,VALID,0,VALID,24.2115,VALID,285,VALID,0.517187,
2008-03-30, 01:32:05,VALID,1004.05,VALID,0,VALID,90.181,VALID,0,VALID,24.231,VALID,13,VALID,0.270703,
2008-03-30, 01:33:05,VALID,1004.05,VALID,0,VALID,90.1581,VALID,0,VALID,24.2115,VALID,11,VALID,0.242578,
2008-03-30, 01:34:05,VALID,1004.02,VALID,0,VALID,90.1429,VALID,0,VALID,24.2115,VALID,286,VALID,0.560938,
2008-03-30, 01:35:05,VALID,1004.04,VALID,0,VALID,90.2344,VALID,0,VALID,24.2115,VALID,296,VALID,0.246094,
2008-03-30, 01:36:05,VALID,1004.03,VALID,0,VALID,90.0742,VALID,0,VALID,24.2133,VALID,302,VALID,0.428516,
2008-03-30, 01:37:05,VALID,1004.01,VALID,0,VALID,90.0513,VALID,0,VALID,24.2115,VALID,311,VALID,0.431641,
2008-03-30, 01:38:05,VALID,1004,VALID,0,VALID,90.0742,VALID,0,VALID,24.2115,VALID,309,VALID,0.138281,
2008-03-30, 01:39:05,VALID,1003.98,VALID,0,VALID,90.181,VALID,0,VALID,24.231,VALID,328,VALID,0.211328,
2008-03-30, 01:40:05,VALID,1003.98,VALID,0,VALID,90.1352,VALID,0,VALID,24.2328,VALID,328,VALID,0.210547,
2008-03-30, 01:41:05,VALID,1003.97,VALID,0,VALID,90.0589,VALID,0,VALID,24.2115,VALID,326,VALID,0.216016,
2008-03-30, 01:42:05,VALID,1003.95,VALID,0,VALID,89.8682,VALID,0,VALID,24.2328,VALID,285,VALID,0.762891,
2008-03-30, 01:43:05,VALID,1003.96,VALID,0,VALID,89.7919,VALID,0,VALID,24.2523,VALID,292,VALID,0.657422,
2008-03-30, 01:44:05,VALID,1003.94,VALID,0,VALID,89.7309,VALID,0,VALID,24.2504,VALID,302,VALID,0.705859,
2008-03-30, 01:45:05,VALID,1003.98,VALID,0,VALID,89.8606,VALID,0,VALID,24.2699,VALID,286,VALID,0.316406,
2008-03-30, 01:46:05,VALID,1003.97,VALID,0,VALID,89.7538,VALID,0,VALID,24.2699,VALID,286,VALID,0.417188,
2008-03-30, 01:47:05,VALID,1003.97,VALID,0,VALID,89.7919,VALID,0,VALID,24.2699,VALID,286,VALID,0.197266,
2008-03-30, 01:48:05,VALID,1003.99,VALID,0,VALID,89.7004,VALID,0,VALID,24.2699,VALID,332,VALID,0.450781,
2008-03-30, 01:49:05,VALID,1003.96,VALID,0,VALID,89.853,VALID,0,VALID,24.2912,VALID,330,VALID,0.209766,
2008-03-30, 01:50:05,VALID,1003.99,VALID,0,VALID,89.8606,VALID,0,VALID,24.2699,VALID,330,VALID,0.235156,
2008-03-30, 01:51:05,VALID,1003.97,VALID,0,VALID,89.7996,VALID,0,VALID,24.2912,VALID,308,VALID,0.405859,
2008-03-30, 01:52:05,VALID,1003.96,VALID,0,VALID,89.975,VALID,0,VALID,24.2699,VALID,304,VALID,0.15,
2008-03-30, 01:53:05,VALID,1003.97,VALID,0,VALID,90.0437,VALID,0,VALID,24.2504,VALID,304,VALID,0,
2008-03-30, 01:54:05,VALID,1003.95,VALID,0,VALID,90.0055,VALID,0,VALID,24.2523,VALID,304,VALID,0,
2008-03-30, 01:55:05,VALID,1003.96,VALID,0,VALID,90.0818,VALID,0,VALID,24.2504,VALID,304,VALID,0.0164062,
2008-03-30, 01:56:05,VALID,1003.9,VALID,0,VALID,90.1352,VALID,0.100563,VALID,24.231,VALID,319,VALID,0.481641,
2008-03-30, 01:57:05,VALID,1003.87,VALID,0,VALID,90.0742,VALID,0,VALID,24.2523,VALID,327,VALID,0.265625,
2008-03-30, 01:58:05,VALID,1003.87,VALID,0,VALID,89.9826,VALID,0,VALID,24.2115,VALID,357,VALID,0.858203,
2008-03-30, 01:59:05,VALID,1003.87,VALID,0,VALID,89.9445,VALID,0,VALID,24.2328,VALID,343,VALID,0.521875,
2008-03-30, 02:00:05,VALID,1003.86,VALID,0,VALID,90.036,VALID,0,VALID,24.2115,VALID,347,VALID,0.382031,
2008-03-30, 02:01:05,VALID,1003.86,VALID,0,VALID,90.12,VALID,0,VALID,24.2115,VALID,356,VALID,0.680859,
2008-03-30, 02:02:05,VALID,1003.85,VALID,0,VALID,90.2497,VALID,0,VALID,24.192,VALID,355,VALID,0.416797,
2008-03-30, 02:03:05,VALID,1003.87,VALID,0,VALID,90.242,VALID,0.100563,VALID,24.192,VALID,6,VALID,0.899219,
2008-03-30, 02:04:05,VALID,1003.87,VALID,0,VALID,90.1581,VALID,0,VALID,24.192,VALID,350,VALID,0.720312,
2008-03-30, 02:05:05,VALID,1003.86,VALID,0,VALID,90.2268,VALID,0,VALID,24.192,VALID,352,VALID,0.602734,
2008-03-30, 02:06:05,VALID,1003.86,VALID,0,VALID,90.1657,VALID,0,VALID,24.192,VALID,353,VALID,0.477734,
2008-03-30, 02:07:05,VALID,1003.85,VALID,0,VALID,90.2573,VALID,0,VALID,24.192,VALID,353,VALID,0.455078,
2008-03-30, 02:08:05,VALID,1003.83,VALID,0,VALID,90.2268,VALID,0,VALID,24.1726,VALID,353,VALID,0.760938,
2008-03-30, 02:09:05,VALID,1003.82,VALID,0,VALID,90.2802,VALID,0.100563,VALID,24.1531,VALID,356,VALID,0.608984,
2008-03-30, 02:10:05,VALID,1003.82,VALID,0,VALID,90.2802,VALID,0,VALID,24.1726,VALID,353,VALID,0.418359,
2008-03-30, 02:11:05,VALID,1003.82,VALID,0,VALID,90.3107,VALID,0,VALID,24.1744,VALID,349,VALID,0.603125,
2008-03-30, 02:12:05,VALID,1003.81,VALID,0,VALID,90.4556,VALID,0,VALID,24.1336,VALID,344,VALID,0.496094,
2008-03-30, 02:13:05,VALID,1003.8,VALID,0,VALID,90.4404,VALID,0,VALID,24.1142,VALID,360,VALID,0.571094,
2008-03-30, 02:14:05,VALID,1003.78,VALID,0,VALID,90.448,VALID,0,VALID,24.1142,VALID,355,VALID,0.699609,
2008-03-30, 02:15:05,VALID,1003.77,VALID,0,VALID,90.5243,VALID,0,VALID,24.1142,VALID,353,VALID,0.89375,
2008-03-30, 02:16:05,VALID,1003.78,VALID,0,VALID,90.5319,VALID,0,VALID,24.0947,VALID,352,VALID,0.653906,
2008-03-30, 02:17:05,VALID,1003.76,VALID,0,VALID,90.5624,VALID,0,VALID,24.1142,VALID,349,VALID,0.795703,
2008-03-30, 02:18:05,VALID,1003.75,VALID,0,VALID,90.5701,VALID,0,VALID,24.0947,VALID,358,VALID,0.573047,
2008-03-30, 02:19:05,VALID,1003.77,VALID,0,VALID,90.6692,VALID,0,VALID,24.0947,VALID,3,VALID,0.264062,
2008-03-30, 02:20:05,VALID,1003.76,VALID,0,VALID,90.7837,VALID,0.100563,VALID,24.0947,VALID,356,VALID,0.266797,
2008-03-30, 02:21:05,VALID,1003.76,VALID,0,VALID,90.7608,VALID,0,VALID,24.0752,VALID,355,VALID,0.60625,
2008-03-30, 02:22:05,VALID,1003.75,VALID,0,VALID,90.7684,VALID,0,VALID,24.116,VALID,354,VALID,0.611328,
2008-03-30, 02:23:05,VALID,1003.73,VALID,0,VALID,90.7684,VALID,0,VALID,24.0947,VALID,348,VALID,0.464453,
2008-03-30, 02:24:05,VALID,1003.72,VALID,0,VALID,90.7989,VALID,0,VALID,24.0947,VALID,348,VALID,0.425781,
2008-03-30, 02:25:05,VALID,1003.72,VALID,0,VALID,90.8295,VALID,0.100563,VALID,24.0947,VALID,320,VALID,0.248828,
2008-03-30, 02:26:05,VALID,1003.67,VALID,0,VALID,90.7989,VALID,0,VALID,24.0752,VALID,342,VALID,0.663672,
2008-03-30, 02:27:05,VALID,1003.67,VALID,0,VALID,90.8676,VALID,0,VALID,24.0752,VALID,333,VALID,0.311719,
2008-03-30, 02:28:05,VALID,1003.65,VALID,0,VALID,90.5777,VALID,0,VALID,24.116,VALID,292,VALID,1.14766,
2008-03-30, 02:29:05,VALID,1003.59,VALID,0,VALID,90.509,VALID,0.100563,VALID,24.1336,VALID,304,VALID,0.339063,
2008-03-30, 02:30:05,VALID,1003.58,VALID,0,VALID,90.1352,VALID,0,VALID,24.1939,VALID,358,VALID,0.802344,
2008-03-30, 02:31:05,VALID,1003.57,VALID,0,VALID,90.1276,VALID,0,VALID,24.192,VALID,23,VALID,0.208203,
2008-03-30, 02:32:05,VALID,1003.57,VALID,0,VALID,90.1886,VALID,0,VALID,24.2133,VALID,16,VALID,0.207031,
2008-03-30, 02:33:05,VALID,1003.57,VALID,0,VALID,90.0666,VALID,0,VALID,24.2133,VALID,345,VALID,0.339063,
2008-03-30, 02:34:05,VALID,1003.54,VALID,0,VALID,90.0513,VALID,0,VALID,24.2115,VALID,333,VALID,0.219141,
2008-03-30, 02:35:05,VALID,1003.55,VALID,0,VALID,89.8453,VALID,0,VALID,24.2115,VALID,346,VALID,0.633984,
2008-03-30, 02:36:05,VALID,1003.54,VALID,0,VALID,89.7385,VALID,0,VALID,24.231,VALID,351,VALID,1.08594,
2008-03-30, 02:37:05,VALID,1003.54,VALID,0,VALID,89.6241,VALID,0,VALID,24.2504,VALID,353,VALID,0.839063,
2008-03-30, 02:38:05,VALID,1003.56,VALID,0,VALID,89.6165,VALID,0,VALID,24.2699,VALID,340,VALID,0.592578,
2008-03-30, 02:39:05,VALID,1003.57,VALID,0,VALID,89.6317,VALID,0,VALID,24.2894,VALID,347,VALID,0.758984,
2008-03-30, 02:40:05,VALID,1003.55,VALID,0,VALID,89.6699,VALID,0,VALID,24.2699,VALID,350,VALID,0.712109,
2008-03-30, 02:41:05,VALID,1003.53,VALID,0,VALID,89.5707,VALID,0,VALID,24.2699,VALID,1,VALID,1.17383,
2008-03-30, 02:42:05,VALID,1003.51,VALID,0,VALID,89.5249,VALID,0,VALID,24.2894,VALID,346,VALID,1.21094,
2008-03-30, 02:43:05,VALID,1003.49,VALID,0,VALID,89.4334,VALID,0,VALID,24.3088,VALID,357,VALID,0.580859,
2008-03-30, 02:44:05,VALID,1003.48,VALID,0,VALID,89.4257,VALID,0,VALID,24.307,VALID,342,VALID,0.914844,
2008-03-30, 02:45:05,VALID,1003.47,VALID,0,VALID,89.3266,VALID,0,VALID,24.3496,VALID,352,VALID,1.14063,
2008-03-30, 02:46:05,VALID,1003.44,VALID,0,VALID,89.2198,VALID,0,VALID,24.3478,VALID,346,VALID,1.30313,
2008-03-30, 02:47:05,VALID,1003.41,VALID,0,VALID,89.1358,VALID,0,VALID,24.3673,VALID,349,VALID,1.23438,
2008-03-30, 02:48:05,VALID,1003.38,VALID,0,VALID,89.0367,VALID,0,VALID,24.3867,VALID,349,VALID,1.27148,
2008-03-30, 02:49:05,VALID,1003.34,VALID,0,VALID,88.9756,VALID,0,VALID,24.408,VALID,347,VALID,1.50508,
2008-03-30, 02:50:05,VALID,1003.35,VALID,0,VALID,89.0214,VALID,0,VALID,24.4062,VALID,358,VALID,0.748438,
2008-03-30, 02:51:05,VALID,1003.3,VALID,0,VALID,88.8765,VALID,0,VALID,24.4062,VALID,354,VALID,1.13008,
2008-03-30, 02:52:05,VALID,1003.32,VALID,0,VALID,88.9222,VALID,0,VALID,24.4062,VALID,356,VALID,0.679297,
2008-03-30, 02:53:05,VALID,1003.27,VALID,0,VALID,88.9299,VALID,0,VALID,24.408,VALID,343,VALID,0.530859,
2008-03-30, 02:54:05,VALID,1003.24,VALID,0,VALID,88.5866,VALID,0,VALID,24.4275,VALID,350,VALID,1.1875,
2008-03-30, 02:55:05,VALID,1003.25,VALID,0,VALID,88.7849,VALID,0,VALID,24.4062,VALID,358,VALID,1.01367,
2008-03-30, 02:56:05,VALID,1003.24,VALID,0,VALID,88.7086,VALID,0,VALID,24.408,VALID,305,VALID,0.561719,
2008-03-30, 02:57:05,VALID,1003.21,VALID,0,VALID,88.2204,VALID,0,VALID,24.3867,VALID,310,VALID,1.11172,
2008-03-30, 02:58:05,VALID,1003.24,VALID,0,VALID,87.9534,VALID,0,VALID,24.408,VALID,347,VALID,1.78281,
2008-03-30, 02:59:05,VALID,1003.23,VALID,0,VALID,87.9534,VALID,0,VALID,24.3867,VALID,247,VALID,0.835547,
2008-03-30, 03:00:05,VALID,1003.22,VALID,0,VALID,87.755,VALID,0,VALID,24.4062,VALID,333,VALID,0.630469,
2008-03-30, 03:01:05,VALID,1003.19,VALID,0,VALID,87.8466,VALID,0,VALID,24.3867,VALID,355,VALID,0.947266,
2008-03-30, 03:02:05,VALID,1003.2,VALID,0,VALID,87.8542,VALID,0,VALID,24.3886,VALID,359,VALID,1.2207,
2008-03-30, 03:03:05,VALID,1003.16,VALID,0,VALID,87.7016,VALID,0,VALID,24.3886,VALID,1,VALID,1.79336,
2008-03-30, 03:04:05,VALID,1003.18,VALID,0,VALID,87.8694,VALID,0,VALID,24.3691,VALID,308,VALID,0.459375,
2008-03-30, 03:05:05,VALID,1003.18,VALID,0,VALID,88.0449,VALID,0,VALID,24.3496,VALID,356,VALID,0.596484,
2008-03-30, 03:06:05,VALID,1003.15,VALID,0,VALID,87.8694,VALID,0,VALID,24.3107,VALID,349,VALID,1.03359,
2008-03-30, 03:07:05,VALID,1003.17,VALID,0,VALID,88.0373,VALID,0,VALID,24.3302,VALID,360,VALID,1.16367,
2008-03-30, 03:08:05,VALID,1003.14,VALID,0,VALID,88.0373,VALID,0,VALID,24.2894,VALID,358,VALID,1.08594,
2008-03-30, 03:09:05,VALID,1003.16,VALID,0,VALID,88.289,VALID,0,VALID,24.2894,VALID,352,VALID,0.773828,
2008-03-30, 03:10:05,VALID,1003.16,VALID,0,VALID,88.228,VALID,0,VALID,24.3107,VALID,353,VALID,0.626172,
2008-03-30, 03:11:05,VALID,1003.19,VALID,0,VALID,88.1059,VALID,0,VALID,24.2894,VALID,344,VALID,1.31836,
2008-03-30, 03:12:05,VALID,1003.18,VALID,0,VALID,88.1288,VALID,0,VALID,24.3107,VALID,353,VALID,0.73125,
2008-03-30, 03:13:05,VALID,1003.21,VALID,0,VALID,88.0525,VALID,0,VALID,24.3107,VALID,14,VALID,0.602344,
2008-03-30, 03:14:05,VALID,1003.21,VALID,0,VALID,88.1212,VALID,0,VALID,24.3496,VALID,348,VALID,0.667188,
2008-03-30, 03:15:05,VALID,1003.25,VALID,0,VALID,87.9457,VALID,0,VALID,24.3283,VALID,333,VALID,0.692187,
2008-03-30, 03:16:05,VALID,1003.27,VALID,0,VALID,87.9305,VALID,0,VALID,24.3283,VALID,347,VALID,1.14219,
2008-03-30, 03:17:04,VALID,1003.26,VALID,0,VALID,87.7016,VALID,0,VALID,24.3478,VALID,357,VALID,0.835938,
2008-03-30, 03:18:04,VALID,1003.33,VALID,0,VALID,87.755,VALID,0,VALID,24.3478,VALID,351,VALID,1.02227,
2008-03-30, 03:19:04,VALID,1003.32,VALID,0,VALID,87.6787,VALID,0,VALID,24.3673,VALID,350,VALID,0.783594,
2008-03-30, 03:20:04,VALID,1003.33,VALID,0,VALID,87.488,VALID,0,VALID,24.3673,VALID,353,VALID,1.23008,
2008-03-30, 03:21:04,VALID,1003.36,VALID,0,VALID,87.7169,VALID,0,VALID,24.3867,VALID,353,VALID,0.597266,
2008-03-30, 03:22:04,VALID,1003.38,VALID,0,VALID,87.6482,VALID,0,VALID,24.4062,VALID,350,VALID,0.542188,
2008-03-30, 03:23:04,VALID,1003.35,VALID,0,VALID,87.5872,VALID,0,VALID,24.4275,VALID,345,VALID,1.02422,
2008-03-30, 03:24:04,VALID,1003.37,VALID,0,VALID,87.7092,VALID,0,VALID,24.4257,VALID,352,VALID,0.673047,
2008-03-30, 03:25:04,VALID,1003.39,VALID,0,VALID,87.8008,VALID,0,VALID,24.4665,VALID,350,VALID,0.534375,
2008-03-30, 03:26:04,VALID,1003.38,VALID,0,VALID,87.5414,VALID,0,VALID,24.4665,VALID,344,VALID,0.638281,
2008-03-30, 03:27:04,VALID,1003.39,VALID,0,VALID,87.5109,VALID,0,VALID,24.4451,VALID,343,VALID,0.647266,
2008-03-30, 03:28:04,VALID,1003.42,VALID,0,VALID,87.7855,VALID,0,VALID,24.4841,VALID,2,VALID,0.100781,
2008-03-30, 03:29:04,VALID,1003.44,VALID,0,VALID,87.6863,VALID,0,VALID,24.4841,VALID,8,VALID,0.748438,
2008-03-30, 03:30:04,VALID,1003.45,VALID,0,VALID,87.5338,VALID,0,VALID,24.4841,VALID,352,VALID,0.758203,
2008-03-30, 03:31:04,VALID,1003.47,VALID,0,VALID,87.5338,VALID,0,VALID,24.5035,VALID,346,VALID,0.698047,
2008-03-30, 03:32:04,VALID,1003.48,VALID,0,VALID,87.549,VALID,0,VALID,24.523,VALID,349,VALID,0.64375,
2008-03-30, 03:33:04,VALID,1003.5,VALID,0,VALID,87.5414,VALID,0,VALID,24.523,VALID,345,VALID,0.330859,
2008-03-30, 03:34:04,VALID,1003.48,VALID,0,VALID,87.2362,VALID,0,VALID,24.523,VALID,343,VALID,0.973047,
2008-03-30, 03:35:04,VALID,1003.48,VALID,0,VALID,87.1676,VALID,0,VALID,24.523,VALID,342,VALID,1.54844,
2008-03-30, 03:36:04,VALID,1003.45,VALID,0,VALID,87.16,VALID,0,VALID,24.5425,VALID,336,VALID,0.951172,
2008-03-30, 03:37:04,VALID,1003.46,VALID,0,VALID,87.1523,VALID,0,VALID,24.523,VALID,351,VALID,0.649219,
2008-03-30, 03:38:04,VALID,1003.47,VALID,0,VALID,87.2668,VALID,0,VALID,24.523,VALID,292,VALID,0.514844,
2008-03-30, 03:39:04,VALID,1003.49,VALID,0,VALID,87.3507,VALID,0,VALID,24.5035,VALID,315,VALID,0.410547,
2008-03-30, 03:40:04,VALID,1003.44,VALID,0,VALID,87.2591,VALID,0,VALID,24.5035,VALID,312,VALID,0.944922,
2008-03-30, 03:41:04,VALID,1003.48,VALID,0,VALID,87.6177,VALID,0,VALID,24.5035,VALID,357,VALID,0.707812,
2008-03-30, 03:42:04,VALID,1003.48,VALID,0,VALID,87.5261,VALID,0,VALID,24.4646,VALID,318,VALID,0.548047,
2008-03-30, 03:43:04,VALID,1003.48,VALID,0,VALID,87.6558,VALID,0,VALID,24.4451,VALID,352,VALID,0.309766,